Wind_Speed
95 91 88 87 85 81 79 76 73 71 67 61 58 56 58 58 59 60 61 60 61 62 62 62 62 63 64 66 67 68 70 70 70 71 71 73 77 78 81 82 83 85 87
99 95 93 91 89 86 83 80 79 75 72 71 67 61 62 62 60 61 63 66 65 65 65 65 67 67 69 70 70 72 71 72 70 69 73 74 79 80 80 85 88 90 91
103 101 99 98 95 92 89 86 82 79 77 74 72 70 69 63 63 64 62 62 64 65 66 68 70 71 73 74 73 69 65 68 73 76 77 77 78 80 83 88 92 95 96
104 103 103 101 101 97 93 91 88 84 81 80 79 78 76 76 71 68 65 65 66 66 66 66 67 68 68 66 65 68 72 76 77 77 80 81 81 82 85 90 95 97 101
102 103 106 105 104 101 99 95 93 91 88 85 84 81 82 80 72 69 69 69 67 67 69 70 71 71 71 71 73 77 80 81 83 83 83 84 84 87 90 91 96 99 104
101 100 104 106 105 104 103 101 100 98 96 90 88 84 81 81 80 80 83 84 85 84 83 83 83 83 81 82 84 85 86 85 83 84 86 88 90 92 94 96 99 104 107
102 100 98 103 107 108 107 106 106 104 101 99 95 93 91 91 91 90 90 91 90 90 91 90 89 87 85 85 86 86 86 85 86 88 88 89 91 95 97 101 105 108 109
101 101 102 102 103 104 106 107 107 107 107 105 101 98 95 94 93 92 93 94 94 93 91 89 89 89 88 89 89 89 89 90 92 93 92 94 98 101 103 106 109 110 113
95 97 98 100 102 103 104 106 107 108 108 109 109 105 104 101 99 98 97 96 95 95 94 93 93 94 93 93 94 94 96 97 98 99 99 101 102 103 106 108 111 114 117
93 96 97 98 99 103 105 105 105 107 109 110 110 109 108 107 106 104 102 99 98 98 97 98 98 98 97 98 97 99 100 101 102 102 102 104 104 109 109 112 116 120 120
94 95 95 97 97 100 101 103 105 106 106 109 110 111 112 112 111 109 108 105 104 104 103 102 101 101 101 101 101 103 103 105 105 106 108 109 111 112 116 119 121 119 124
94 95 95 98 99 99 100 102 104 106 107 108 109 112 113 114 114 113 113 112 111 110 108 106 105 105 104 105 105 107 108 110 112 112 112 115 116 120 122 121 121 123 114
87 92 97 99 99 100 101 103 104 104 105 107 109 110 111 115 115 114 114 114 114 113 112 111 111 112 112 112 112 112 113 113 114 116 117 118 119 122 120 119 117 109 104
81 86 91 96 100 103 103 103 103 104 104 106 106 107 108 110 114 117 118 118 117 116 115 116 117 117 116 117 116 119 120 123 121 121 121 120 116 114 110 107 104 99 101
78 82 86 91 95 99 102 103 103 105 105 105 104 104 106 106 107 110 113 114 115 116 117 117 118 119 119 118 117 116 114 114 115 112 113 107 104 98 104 98 94 93 91
76 80 82 84 86 89 91 94 96 98 98 100 101 101 101 101 103 105 106 107 109 111 112 113 113 113 113 111 110 105 103 100 99 100 102 101 98 98 94 92 96 84 82
75 75 77 79 81 83 84 85 86 87 87 90 93 94 95 95 93 93 93 94 96 98 98 97 95 98 100 101 96 96 99 101 98 100 97 97 94 86 89 85 80 76 73
71 72 72 74 75 76 78 79 80 82 83 85 86 87 87 86 87 86 87 86 86 87 89 88 89 88 89 87 85 85 87 87 86 86 86 86 85 82 76 73 70 69 66
66 67 67 68 69 71 73 75 77 77 78 78 79 80 81 81 80 80 80 80 80 79 79 83 84 84 81 85 85 86 83 82 82 83 82 76 70 68 66 65 65 63 66
61 64 63 64 65 67 69 69 70 71 73 74 74 76 76 76 76 76 75 75 74 73 77 77 77 78 78 78 78 77 79 77 72 70 68 65 65 63 58 60 62 63 64
54 56 59 62 63 65 65 66 66 66 68 68 68 68 68 68 68 68 69 70 70 69 68 70 70 69 70 70 69 69 66 67 65 63 61 61 57 58 58 58 59 59 61
47 48 51 55 57 57 58 60 61 64 65 66 66 67 68 69 68 67 66 66 66 66 64 63 64 64 65 65 64 64 64 62 58 56 57 57 57 57 57 58 59 60 61
43 44 44 45 46 47 48 49 52 54 56 57 59 58 59 61 62 62 62 63 63 62 61 62 61 61 62 61 60 59 57 55 54 54 53 58 59 60 60 59 59 60 62
41 42 43 44 44 45 45 47 47 47 48 50 51 51 50 52 52 53 54 55 57 58 58 59 59 58 59 58 57 55 55 55 57 55 59 62 59 52 50 54 59 61 63
38 40 42 44 45 45 46 47 48 49 50 50 50 51 51 52 52 52 52 53 53 53 53 53 56 57 58 57 57 57 59 58 58 60 61 61 54 50 53 58 61 62 65
41 40 40 41 43 45 47 48 49 49 51 53 54 54 53 52 53 52 51 52 51 50 49 49 49 49 51 53 55 57 55 54 53 53 55 51 48 50 55 61 65 65 67
Wind_Direction
225 227 229 232 235 236 238 240 241 240 238 240 242 248 253 254 258 259 259 260 262 264 266 269 271 274 276 279 281 284 286 289 292 296 296 296 298 300 301 302 303 305 306
227 227 229 231 234 236 238 240 243 243 242 242 244 248 247 250 252 255 258 260 262 264 266 269 271 272 275 277 279 282 285 291 294 291 294 296 298 300 299 300 302 303 305
227 228 230 232 233 235 237 240 242 245 246 243 246 249 248 248 252 253 255 259 263 265 268 271 273 275 277 279 283 288 289 288 291 291 293 295 297 297 298 299 301 302 305
228 230 232 234 234 235 238 240 242 244 246 247 245 246 248 250 253 254 256 259 263 266 268 271 274 277 280 282 282 284 286 287 290 291 293 295 295 294 294 297 300 302 304
228 228 231 234 236 237 238 239 242 244 245 247 249 250 251 253 252 252 256 260 263 264 265 267 270 273 275 277 280 283 285 287 288 290 292 294 294 294 295 297 298 301 302
229 229 230 233 235 238 239 240 241 242 243 244 245 247 250 251 253 257 259 260 261 262 264 266 269 272 274 276 279 282 284 287 288 289 291 291 293 293 295 296 298 299 303
231 231 231 233 235 236 239 241 242 243 244 245 244 246 248 250 252 252 254 256 259 262 264 266 269 272 274 277 279 282 284 285 286 288 289 290 290 291 293 295 297 299 302
232 232 232 233 235 237 239 241 242 243 244 243 244 245 246 249 252 254 257 259 261 263 266 268 270 272 274 276 278 279 281 282 284 286 286 287 289 290 293 294 296 300 301
234 235 235 236 237 237 238 240 242 243 244 246 245 245 246 247 249 251 254 257 261 264 266 267 269 270 272 274 275 277 279 281 283 284 285 287 289 290 293 295 296 298 301
235 236 236 237 238 239 239 240 241 243 244 246 247 248 248 249 250 251 253 255 257 260 262 264 267 269 271 273 275 277 278 280 282 284 285 286 288 290 293 293 297 298 300
236 237 237 238 240 241 240 241 242 243 244 246 248 249 250 251 252 253 253 254 256 258 260 263 265 267 269 271 273 275 277 279 281 283 284 286 288 290 292 294 296 298 300
238 238 239 238 239 240 242 243 243 244 245 246 247 248 250 252 253 254 255 256 257 259 261 263 265 266 269 270 272 274 276 278 280 281 284 286 287 289 292 294 296 297 298
238 239 240 240 241 241 242 244 245 247 248 248 248 249 250 251 253 255 257 258 259 260 262 263 265 267 270 271 272 275 276 277 279 282 284 286 287 288 290 293 294 296 297
238 239 241 241 242 243 244 244 245 246 247 250 251 251 252 253 253 254 255 257 259 261 262 264 266 268 270 271 273 274 276 278 280 281 282 284 285 287 289 292 291 295 297
239 240 240 241 242 243 244 246 248 250 250 251 251 253 254 256 257 257 257 259 260 261 263 264 266 268 269 271 273 275 277 277 278 279 281 283 284 285 286 290 293 295 296
242 242 243 245 246 247 247 248 248 249 251 253 255 256 256 256 256 257 258 259 261 262 263 264 266 267 268 270 271 274 273 273 276 277 278 280 282 287 287 290 292 294 293
245 246 246 248 249 250 252 252 253 255 254 254 255 255 257 258 259 259 260 259 258 259 261 263 264 263 267 267 269 271 270 273 276 276 278 282 282 286 288 289 288 291 293
251 249 250 250 251 252 253 254 256 256 257 257 258 258 260 259 259 260 260 261 261 263 263 264 262 262 264 266 268 272 272 273 276 276 278 280 284 286 286 286 287 289 291
252 254 255 255 254 254 255 255 256 257 258 259 260 261 261 262 262 261 260 260 260 261 266 266 264 265 265 266 268 270 271 273 275 278 280 281 280 282 283 283 287 289 290
251 252 253 253 254 255 256 256 257 258 259 259 260 260 261 261 261 261 262 263 265 265 264 264 264 265 266 268 269 270 271 273 275 277 277 278 281 282 280 283 287 290 292
251 250 250 250 252 252 253 254 256 257 258 260 261 263 263 263 264 264 264 263 262 263 264 264 264 267 267 268 269 270 271 272 274 276 275 277 277 278 281 281 287 291 292
250 249 249 249 251 253 253 254 255 255 257 259 261 262 263 263 264 264 264 263 263 263 262 263 264 265 265 266 268 269 271 272 273 270 270 273 276 280 280 285 287 288 293
246 245 246 246 247 248 249 249 251 253 255 257 258 259 261 262 264 265 265 264 264 263 262 263 264 264 264 266 267 269 268 268 266 267 269 273 275 276 280 285 282 287 292
249 248 247 245 245 246 247 248 248 251 252 253 255 254 255 258 259 259 260 261 262 263 264 263 262 261 262 263 264 263 262 264 263 265 269 273 279 282 279 280 284 289 293
256 254 252 252 251 251 251 251 252 251 251 252 254 255 253 251 254 256 259 261 262 262 262 262 262 261 261 261 259 261 262 263 265 268 274 274 278 276 279 281 286 289 293
254 255 256 255 255 254 253 253 253 255 255 254 255 256 257 256 256 255 256 258 261 262 262 261 262 262 262 261 261 262 265 265 264 266 271 274 271 276 279 281 285 290 294
Height
10710 10721 10730 10738 10745 10752 10760 10765 10771 10776 10783 10787 10791 10794 10797 10800 10803 10806 10808 10809 10810 10811 10811 10811 10812 10811 10810 10808 10806 10803 10801 10797 10794 10792 10785 10779 10775 10770 10763 10759 10753 10748 10745
10699 10710 10717 10726 10732 10741 10747 10755 10760 10766 10772 10777 10780 10782 10785 10788 10790 10793 10796 10797 10798 10799 10799 10800 10800 10800 10799 10796 10794 10792 10790 10787 10781 10777 10774 10770 10763 10758 10751 10741 10737 10733 10729
10684 10694 10702 10710 10718 10727 10734 10742 10748 10755 10760 10765 10768 10770 10773 10775 10779 10782 10784 10785 10788 10788 10788 10788 10788 10787 10787 10784 10783 10781 10779 10775 10769 10764 10760 10759 10754 10746 10737 10728 10720 10715 10711
10670 10682 10689 10694 10703 10714 10722 10728 10735 10742 10747 10751 10754 10757 10760 10765 10768 10771 10773 10774 10776 10777 10777 10776 10775 10775 10774 10772 10769 10767 10765 10762 10758 10753 10746 10742 10739 10733 10728 10719 10707 10699 10693
10655 10668 10674 10682 10688 10700 10707 10715 10722 10728 10732 10737 10741 10746 10750 10753 10756 10758 10760 10762 10762 10763 10763 10762 10762 10761 10760 10758 10756 10754 10751 10747 10745 10740 10735 10727 10722 10715 10711 10707 10698 10689 10677
10641 10652 10661 10669 10676 10683 10691 10699 10704 10709 10715 10721 10727 10732 10737 10741 10743 10745 10747 10747 10749 10749 10749 10749 10748 10748 10747 10745 10742 10740 10737 10733 10729 10725 10720 10715 10709 10701 10694 10689 10681 10675 10668
10628 10638 10649 10654 10660 10665 10672 10679 10686 10694 10699 10704 10711 10716 10721 10723 10726 10727 10729 10731 10733 10734 10734 10734 10734 10734 10733 10731 10729 10726 10722 10718 10714 10709 10705 10699 10692 10686 10681 10673 10666 10657 10649
10614 10621 10628 10636 10643 10651 10656 10662 10669 10675 10681 10687 10692 10698 10703 10706 10710 10712 10714 10715 10717 10717 10719 10720 10720 10719 10718 10715 10713 10710 10707 10703 10699 10694 10690 10683 10675 10668 10663 10658 10650 10642 10634
10598 10605 10615 10622 10629 10633 10638 10645 10651 10656 10662 10668 10673 10678 10683 10687 10691 10693 10697 10700 10702 10704 10704 10704 10703 10702 10700 10699 10697 10694 10690 10686 10682 10677 10672 10665 10659 10651 10645 10639 10631 10626 10617
10580 10587 10598 10604 10610 10615 10621 10626 10631 10636 10642 10647 10654 10660 10665 10668 10671 10675 10678 10682 10683 10685 10686 10685 10685 10684 10683 10682 10680 10676 10672 10669 10663 10659 10653 10647 10641 10636 10631 10622 10615 10607 10601
10564 10570 10578 10587 10592 10596 10603 10606 10612 10618 10625 10630 10634 10639 10643 10649 10653 10657 10659 10661 10663 10664 10666 10666 10667 10666 10665 10663 10662 10658 10655 10651 10645 10640 10635 10630 10625 10619 10611 10605 10598 10589 10582
10545 10553 10560 10566 10572 10578 10583 10589 10594 10600 10605 10610 10614 10619 10623 10627 10631 10636 10639 10642 10644 10645 10647 10648 10649 10647 10646 10645 10643 10639 10636 10632 10626 10621 10617 10612 10606 10600 10594 10586 10579 10572 10563
10528 10534 10540 10546 10553 10558 10564 10568 10574 10579 10584 10589 10594 10599 10603 10607 10611 10614 10617 10621 10624 10626 10627 10627 10627 10627 10627 10625 10622 10620 10617 10610 10604 10602 10599 10592 10586 10582 10574 10570 10560 10554 10547
10510 10515 10520 10525 10530 10536 10542 10548 10552 10558 10563 10568 10573 10579 10583 10587 10589 10592 10595 10599 10603 10604 10606 10606 10606 10604 10605 10602 10601 10598 10594 10592 10587 10583 10577 10572 10566 10561 10557 10550 10543 10536 10530
10491 10495 10500 10503 10508 10514 10521 10528 10535 10539 10544 10549 10553 10558 10562 10566 10570 10572 10575 10578 10580 10582 10583 10584 10583 10582 10580 10579 10579 10576 10574 10568 10565 10560 10557 10552 10548 10541 10537 10531 10526 10517 10512
10473 10478 10483 10488 10493 10498 10503 10509 10515 10520 10524 10528 10533 10536 10541 10545 10548 10551 10553 10555 10557 10558 10558 10559 10560 10558 10557 10555 10554 10553 10549 10546 10542 10540 10537 10532 10529 10524 10518 10514 10507 10501 10494
10458 10463 10468 10472 10476 10481 10485 10490 10495 10499 10505 10509 10512 10515 10517 10519 10523 10526 10529 10531 10532 10534 10535 10535 10533 10532 10534 10532 10531 10530 10528 10526 10522 10519 10517 10514 10509 10506 10502 10495 10489 10484 10478
10444 10448 10452 10455 10459 10463 10466 10471 10474 10477 10481 10484 10487 10491 10494 10497 10499 10501 10503 10506 10508 10510 10510 10510 10510 10509 10510 10510 10509 10507 10505 10504 10501 10499 10497 10494 10492 10487 10482 10478 10473 10468 10463
10427 10429 10433 10437 10441 10445 10448 10452 10456 10459 10461 10464 10467 10470 10473 10475 10477 10478 10481 10483 10483 10483 10485 10487 10487 10489 10488 10487 10488 10486 10484 10483 10483 10481 10480 10477 10473 10469 10465 10462 10458 10454 10448
10411 10413 10418 10421 10424 10428 10430 10434 10436 10439 10442 10444 10447 10449 10451 10453 10456 10457 10459 10460 10462 10462 10464 10465 10466 10467 10467 10466 10466 10467 10466 10465 10465 10463 10461 10459 10456 10453 10450 10447 10444 10440 10435
10394 10397 10401 10403 10406 10409 10414 10417 10419 10421 10422 10425 10426 10429 10431 10431 10433 10435 10438 10440 10441 10442 10444 10445 10446 10447 10447 10447 10447 10448 10448 10448 10447 10446 10444 10443 10441 10439 10437 10433 10430 10426 10421
10380 10382 10385 10388 10390 10393 10396 10399 10402 10403 10405 10407 10410 10411 10411 10412 10414 10417 10418 10419 10421 10424 10427 10428 10428 10429 10430 10431 10431 10431 10431 10431 10431 10430 10429 10428 10426 10424 10422 10420 10416 10412 10407
10367 10370 10372 10374 10376 10378 10381 10384 10385 10387 10389 10392 10394 10395 10395 10396 10397 10398 10400 10402 10404 10407 10409 10410 10411 10412 10412 10413 10413 10414 10415 10416 10416 10416 10415 10412 10411 10409 10408 10405 10400 10397 10393
10356 10358 10360 10362 10364 10366 10368 10370 10372 10374 10375 10377 10378 10380 10381 10381 10382 10384 10385 10386 10388 10389 10391 10392 10393 10395 10396 10397 10397 10398 10399 10400 10401 10401 10400 10398 10396 10394 10392 10389 10385 10382 10377
10345 10347 10348 10350 10352 10353 10356 10357 10359 10360 10362 10363 10364 10365 10367 10368 10368 10370 10370 10372 10373 10374 10375 10376 10377 10378 10379 10380 10382 10383 10384 10385 10386 10385 10385 10383 10382 10380 10377 10374 10370 10366 10362
10333 10336 10337 10339 10339 10341 10343 10344 10346 10348 10349 10349 10350 10351 10353 10355 10355 10356 10357 10358 10358 10360 10361 10362 10363 10363 10364 10365 10367 10368 10369 10369 10370 10369 10369 10368 10367 10365 10362 10358 10354 10352 10347